Regional Weather Roundup
Issued by NWS Grand Forks, ND

Home | Current Version | Previous Version | Text Only | Print | Product List | Glossary Off
Versions: 1 2 3 4 5 6 7 8 9 10 11 12 13 14 15 16 17 18 19 20 21 22 23 24 25 26 27 28 29 30 31 32 33 34 35 36 37 38 39 40 41 42 43 44 45 46 47 48 49 50

000
ASUS43 KFGF 202331
RWRFGF
PRAIRIE TO PINES  WEATHER ROUNDUP
NATIONAL WEATHER SERVICE EASTERN NORTH DAKOTA/GRAND FORKS ND
600 PM CDT FRI OCT 20 2017

 **SATELLITE DATA USED TO AUGMENT SKY COVER AT AUTOMATED STATIONS**
 *****  WEATHER ACROSS EASTERN NORTH DAKOTA  *****

CITY           SKY/WX    TMP DP  RH WIND       PRES   REMARKS
GRAND FORKS    MOCLDY    75  54  47 S20G35    29.37F
GRAND FRKS AFB FAIR      73  52  46 S22G33    29.37S
DEVILS LAKE    FAIR      66  51  58 SE18      29.31F
FARGO          FAIR      75  54  47 S20G35    29.43R
WAHPETON ARPT  NOT AVBL
$$

 ***** WEATHER ACROSS CENTRAL AND WESTERN NORTH DAKOTA  *****

CITY           SKY/WX    TMP DP  RH WIND       PRES   REMARKS
BISMARCK       FAIR      76  49  38 S12       29.28R
MINOT          FAIR      77  40  26 SE9       29.22F
JAMESTOWN      FAIR      70  52  52 S13       29.35F
MINOT AFB      FAIR      74  38  27 S7        29.20F
GARRISON         N/A     74  47  38 SE13      29.24S
WILLISTON        N/A    N/A N/A N/A MISG      29.19F
DICKINSON      FAIR      77  40  26 SE7       29.21F
HETTINGER      FAIR      80  33  18 SW15      29.26S
$$

 *****  OTHER AIRPORT OBSERVATIONS IN OUR AREA  *****

CITY           SKY/WX    TMP DP  RH WIND       PRES   REMARKS
WALHALLA       FAIR     N/A N/A N/A S13G29    29.31R
GRAFTON AIRPOR FAIR      72  52  49 S17G26    29.37S
VALLEY CITY AR FAIR      70  54  56 S16       29.39F
CANDO          FAIR      66  50  55 SE18G24   29.31S
CAVALIER APRT  FAIR      73  50  43 S24G32    29.31S
GWINNER        CLEAR     72  55  56 S20G26    29.42S
SHEYENNE NWR     N/A     73  54  50 S18       29.95S
ROLLA          FAIR      68  48  49 S15       29.29R
 ***** THE ABOVE OBSERVATIONS ARE NON NWS ARE NOT QUALITY
       CONTROLLED AND MAY MIS-REPORT RAIN FOR SNOW...
$$

  *****  WEATHER ACROSS NORTHERN MINNESOTA  *****

CITY           SKY/WX    TMP DP  RH WIND       PRES   REMARKS
FLAG ISLAND    FAIR      61  48  63 S20       29.44S
WARROAD        FAIR      72  54  53 SE16      29.45S
ROSEAU         FAIR      75  54  46 S24       29.43S
HALLOCK        FAIR      73  52  46 S22G29    29.36R
THF RVR FALLS  FAIR      71  52  50 S14       29.45F
BAUDETTE       FAIR      72  49  44 SE18G25   29.50F
WASKISH        FAIR      72  52  49 SE9G22    29.52S
CROOKSTON      FAIR      73  54  49 S22       29.41F
STEPHEN NDAWN    N/A     72  52  49 S20         N/A
GREENBUSH NDAW   N/A     72  52  49 S20         N/A
$$
  *****  WEATHER ACROSS CENTRAL AND WEST MINNESOTA  *****

CITY           SKY/WX    TMP DP  RH WIND       PRES   REMARKS
FOSSTON        FAIR      72  48  43 S24G33    29.48R
BEMIDJI        FAIR      71  50  48 S18G25    29.54S
PARK RAPIDS    FAIR      73  51  46 S20G31    29.56F
ELBOW LAKE     FAIR      70  54  56 S20G26    29.53F
WADENA         FAIR      72  52  49 S17G23    29.55F
DETROIT LAKES  FAIR      72  52  49 S15G24    29.53S
MOORHEAD       FAIR      73  54  49 S18G25    29.45S
FERGUS FALLS   FAIR      72  54  53 S18       29.50F
MORRIS MN      FAIR      72  54  53 S17G24    29.53F
STAPLES        FAIR      72  48  43 S17       29.59S
$$
  *****  WEATHER ELSEWHERE ACROSS MINNESOTA  *****

CITY           SKY/WX    TMP DP  RH WIND       PRES   REMARKS
DULUTH         FAIR      65  47  52 S9        29.72F
INTRNTL FALLS  FAIR      73  46  38 S12G21    29.57F
ELY            FAIR      70  45  40 S9        29.69F
CLOQUET        FAIR      72  37  28 S9G18     29.70S
WHEATON        FAIR      72  52  49 SE17      29.50S
BRAINERD       FAIR      72  50  45 S17G30    29.63F
HIBBING        FAIR      68  47  46 SE8       29.66F
ALEXANDRIA     FAIR      73  52  47 S20       29.59F
SAINT CLOUD    FAIR      73  49  42 S16       29.66S
MINNEAPOLIS    MOCLDY    75  45  34 S20G26    29.73S
$$

  *****  WEATHER ACROSS SOUTH DAKOTA  *****

CITY           SKY/WX    TMP DP  RH WIND       PRES   REMARKS
SIOUX FALLS    FAIR      74  58  57 S28G39    29.58F
BROOKINGS      FAIR      71  55  56 S23G30    29.56S
WATERTOWN      FAIR      70  54  56 S25G33    29.51F
HURON          FAIR      73  54  51 S18G25    29.46F
SISSETON         N/A     74  55  51 S21G28    29.45F
ABERDEEN       FAIR      73  55  53 S21G30    29.41F
MITCHELL       FAIR      75  55  49 S20G30    29.50F
PIERRE         FAIR      75  53  46 S23G31    29.35F
MOBRIDGE       FAIR      78  53  41 S23G29    29.28F
RAPID CITY     FAIR      79  34  19 SW16G28   29.33F
$$

  *****  SOME WEATHER IN NEARBY STATES *****

CITY           SKY/WX    TMP DP  RH WIND       PRES   REMARKS
GLASGOW MT     FAIR      74  29  19 S7        29.16R
GREAT FALLS MT LGT RAIN  44  33  65 W17G33    29.48R
CHEYENNE WY    PTSUNNY   68  30  24 S13       29.58F
SCOTTSBLUFF NE FAIR      77  32  19 W5        29.45F
OMAHA NE       CLOUDY    74  58  57 S22G30    29.72F
DES MOINES IA  MOCLDY    70  51  51 S23G30    29.85R
DAVENPORT IA   FAIR      70  45  40 S8        29.99F
CHICAGO IL     CLOUDY    72  50  45 S12       30.04S
EAU CLAIRE WI  FAIR      72  45  37 S16       29.81F
LA CROSSE WI   FAIR      73  47  39 S10       29.86F
$$

  *****  SOME NATIONAL WEATHER *****

CITY           SKY/WX    TMP DP  RH WIND       PRES   REMARKS
LA GUARDIA NY  FAIR      71  39  31 NW9       30.13R
RALEIGH NC     FAIR      66  54  65 CALM      30.21R
ATLANTA GA     MOCLDY    73  38  27 SE3       30.19R
NEW ORLEANS LA MOCLDY    77  71  82 E16       30.05S
OKLAHOMA CITY  MOCLDY    77  61  57 S20G29    29.85F
ALBUQUERQUE NM PTSUNNY   73  42  32 S16G25    29.85F
SALT LAKE CITY PTSUNNY   48  36  63 SE5       29.88S
LOS ANGELES CA FAIR      69  59  70 W16       29.89S
BOISE ID       FAIR      51  30  44 W12       29.85R
SEATTLE WA     PTSUNNY   51  45  79 S16G25    29.80S
$$

*** WEATHER ACROSS MANITOBA...SASKATCHEWAN AND ONTARIO ***
                ***ONTARIO***

CITY           SKY/WX    TMP DP  RH WIND       PRES   REMARKS
GERALDTON      PTCLDY    61  48  63 S9        29.81R
THUNDER BAY    MOCLDY    54  48  82 E8        29.77R
SIOUX LOOKOUT  MOCLDY    66  48  52 SE6       29.59F
TORONTO        PTCLDY    64  39  39 S7        30.15S
BIG TROUT LK   MOCLDY    41  34  75 E10G18    29.82S
PICKLE LAKE    MOCLDY    57  39  51 E12G18    29.68S
DRYDEN         CLEAR     70  46  43 S9        29.56F
KENORA         PTCLDY    68  50  52 SE9       29.48F
$$
                *** MANITOBA***

CITY           SKY/WX    TMP DP  RH WIND       PRES   REMARKS
BRANDON        CLOUDY    66  48  52 SE6       29.24S
DAUPHIN        CLEAR     59  46  63 SE8       29.22R HAZE
ISLAND LAKE    MOCLDY    48  37  66 E14G21    29.56F
PILOT MOUND      N/A     68  48  49 S21G28      N/A
THE PAS        PTCLDY    46  37  71 E8        29.32F
THOMPSON       MOCLDY    39  34  81 E9G18     29.56F
WINNIPEG       MOCLDY    73  52  46 S17G26    29.32R
LYNN LAKE      CLOUDY    36  34  93 E10G18    29.48F
CHURCHILL      MOCLDY    34  28  80 SE20      29.91S WCI  22
GILLAM         CLOUDY    39  30  70 E10G25    29.73F
$$
                ***SASKATCHEWAN***

CITY           SKY/WX    TMP DP  RH WIND       PRES   REMARKS
ESTEVAN        MOCLDY    70  34  26 SE8       29.19S
KINDERSLEY     CLOUDY    55  36  47 N10       29.18F
LLOYDMINSTER   CLOUDY    46  37  71 NW10G20   29.25S
PRINCE ALBERT  CLOUDY    50  37  62 NE6       29.23S
REGINA         MOCLDY    64  34  32 SE7       29.15F
YORKTON        CLEAR     66  39  37 SE13G20   29.16F
N. BATTLEFORD  CLEAR     52  37  58 NW8       29.25R
LA RONGE       CLOUDY    45  37  76 E7        29.31S
SASKATOON      CLOUDY    50  36  57 NE10      29.19F
SWIFT CURRENT  CLEAR     64  28  25 W12G17    29.18R
$$
NOTE: THESE ARE AUTOMATED STATIONS WITH LIMITED QUALITY CONTROL
      "FAIR" INDICATES FEW OR NO CLOUDS BELOW 12,000 FEET WITH NO
      SIGNIFICANT WEATHER AND/OR OBSTRUCTIONS TO VISIBILITY.
      SKY/WX - SKY CONDITION AND SIGNIFICANT WEATHER.
      TMP - AIR TEMPERATURE.    DP   - DEWPOINT TEMPERATURE.
      RH  - RELATIVE HUMIDITY.  PRES - PRESSURE.
      HX  - HEAT INDEX.         WCI  - WIND CHILL INDEX.
$



USA.gov is the U.S. government's official web portal to all federal, state and local government web resources and services.